Weather History for Salisbury, MD

Change the Weather History Date:

Wednesday, October 16, 2013

  Actual Average Record
Temperature  
Mean Temperature 69 °F 57 °F  
Max Temperature 77 °F 68 °F 85 °F (1947)
Min Temperature 60 °F 46 °F 28 °F (1937)
Degree Days  
Heating Degree Days 0 9  
Month to date heating degree days 9 106  
Since 1 July heating degree days 36 154  
Cooling Degree Days 4 1  
Month to date cooling degree days 82 20  
Year to date cooling degree days 1614 1145  
Growing Degree Days 18 (Base 50)    
Moisture  
Dew Point 61 °F    
Average Humidity 77    
Maximum Humidity 93    
Minimum Humidity 60    
Precipitation  
Precipitation 0.00 in 0.12 in 1.51 in (1974)
Month to date precipitation 3.61 1.83  
Year to date precipitation 44.06 36.88  
Snow  
Snow 0.00 in 0.00 in 0.00 in (2002)
Month to date snowfall 0.0 0.0  
Since 1 July snowfall 0.0 0.0  
Snow Depth 0.00 in    
Sea Level Pressure  
Sea Level Pressure 30.00 in    
Wind  
Wind Speed 3 mph (NE)    
Max Wind Speed 9 mph    
Max Gust Speed 12 mph    
Visibility 9 miles    
Events      
T = Trace of Precipitation, MM = Missing Value Source: NWS Daily Summary

Daily Weather History Graph

Daily Weather History Graph

Search for Another Location

Airport:

Trip Planner

Search our weather history database for the weather conditions in past years. The results will help you decide how hot, cold, wet, or windy it might be!

Date:

Astronomy

Oct. 16, 2013 Rise Set
Actual Time 7:12 AM EDT 6:22 PM EDT
Civil Twilight 6:45 AM EDT 6:48 PM EDT
Nautical Twilight 6:14 AM EDT 7:19 PM EDT
Astronomical Twilight 5:44 AM EDT 7:50 PM EDT
Moon 4:59 PM EDT (10/16) 4:39 AM EDT (10/16)
Length of Visible Light 12h 03m
Length of Day
11h 10m
Waxing Gibbous, 94% of the Moon is Illuminated
Oct 16
Waxing Gibbous
Oct 18
Full
Oct 26
Last Quarter
Nov 3
New
Nov 10
First Quarter

Hourly Weather History & Observations

Time (EDT) Temp. Dew Point Humidity Pressure Visibility Wind Dir Wind Speed Gust Speed Precip Events Conditions
12:54 AM 62.1 °F 57.9 °F 86% 30.07 in 10.0 mi Calm Calm - N/A   Overcast
1:54 AM 62.1 °F 57.9 °F 86% 30.06 in 10.0 mi Calm Calm - N/A   Scattered Clouds
2:42 AM 60.8 °F 57.2 °F 88% 30.04 in 7.0 mi NNE 3.5 mph - N/A   Mostly Cloudy
2:54 AM 61.0 °F 57.9 °F 90% 30.05 in 6.0 mi Calm Calm - N/A   Overcast
3:54 AM 63.0 °F 60.1 °F 90% 30.05 in 9.0 mi NNE 3.5 mph - N/A   Overcast
4:54 AM 64.0 °F 60.1 °F 87% 30.05 in 10.0 mi NNE 4.6 mph - N/A   Overcast
5:54 AM 63.0 °F 60.1 °F 90% 30.05 in 10.0 mi NNE 4.6 mph - N/A   Overcast
6:47 AM 62.6 °F 60.8 °F 94% 30.05 in 8.0 mi North 3.5 mph - N/A   Overcast
6:54 AM 63.0 °F 60.1 °F 90% 30.06 in 9.0 mi North 4.6 mph - N/A   Overcast
7:26 AM 62.6 °F 59.0 °F 88% 30.04 in 8.0 mi Calm Calm - N/A   Partly Cloudy
7:54 AM 63.0 °F 60.1 °F 90% 30.04 in 8.0 mi NNW 3.5 mph - N/A   Partly Cloudy
8:54 AM 66.0 °F 60.1 °F 81% 30.05 in 10.0 mi NNE 4.6 mph - N/A   Scattered Clouds
9:19 AM 66.2 °F 60.8 °F 83% 30.06 in 10.0 mi North 6.9 mph - N/A   Overcast
9:54 AM 66.9 °F 60.1 °F 79% 30.06 in 10.0 mi North 8.1 mph - N/A   Overcast
10:03 AM 66.2 °F 60.8 °F 83% 30.05 in 10.0 mi North 5.8 mph - N/A   Overcast
10:54 AM 68.0 °F 61.0 °F 78% 30.05 in 9.0 mi ENE 3.5 mph - N/A   Overcast
11:54 AM 71.1 °F 61.0 °F 70% 30.03 in 10.0 mi NE 6.9 mph - N/A   Overcast
12:14 PM 71.6 °F 60.8 °F 69% 30.02 in 10.0 mi North 5.8 mph - N/A   Mostly Cloudy
12:54 PM 73.9 °F 61.0 °F 64% 30.01 in 10.0 mi Calm Calm - N/A   Mostly Cloudy
1:08 PM 73.4 °F 60.8 °F 65% 29.99 in 10.0 mi North 4.6 mph - N/A   Scattered Clouds
1:24 PM 73.4 °F 62.6 °F 69% 29.98 in 10.0 mi Variable 4.6 mph - N/A   Mostly Cloudy
1:33 PM 73.4 °F 60.8 °F 65% 29.98 in 10.0 mi North 3.5 mph - N/A   Scattered Clouds
1:46 PM 77.0 °F 60.8 °F 57% 29.97 in 10.0 mi NNE 5.8 mph - N/A   Mostly Cloudy
1:54 PM 75.9 °F 61.0 °F 60% 29.98 in 10.0 mi Calm Calm - N/A   Partly Cloudy
2:08 PM 73.4 °F 60.8 °F 65% 29.97 in 10.0 mi NE 5.8 mph - N/A   Mostly Cloudy
2:20 PM 73.4 °F 60.8 °F 65% 29.98 in 10.0 mi NE 3.5 mph - N/A   Mostly Cloudy
2:54 PM 73.9 °F 60.1 °F 62% 29.98 in 10.0 mi Calm Calm - N/A   Mostly Cloudy
3:18 PM 75.2 °F 60.8 °F 61% 29.97 in 10.0 mi Calm Calm - N/A   Overcast
3:44 PM 75.2 °F 60.8 °F 61% 29.96 in 1.5 mi Calm Calm - N/A   Haze
3:54 PM 75.9 °F 61.0 °F 60% 29.97 in 1.2 mi Calm Calm - N/A   Haze
3:58 PM 75.2 °F 60.8 °F 61% 29.96 in 10.0 mi NE 3.5 mph - N/A   Partly Cloudy
4:54 PM 73.9 °F 61.0 °F 64% 29.97 in 10.0 mi Calm Calm - N/A   Overcast
5:54 PM 70.0 °F 62.1 °F 76% 29.97 in 10.0 mi East 8.1 mph - N/A   Overcast
6:54 PM 66.9 °F 61.0 °F 81% 29.97 in 10.0 mi SE 6.9 mph - N/A   Overcast
7:02 PM 66.2 °F 62.6 °F 88% 29.96 in 10.0 mi SE 4.6 mph - N/A   Overcast
7:44 PM 66.2 °F 60.8 °F 83% 29.97 in 10.0 mi ESE 6.9 mph - N/A   Overcast
7:54 PM 66.0 °F 61.0 °F 84% 29.97 in 10.0 mi ESE 5.8 mph - N/A   Overcast
8:02 PM 66.2 °F 60.8 °F 83% 29.97 in 10.0 mi SE 4.6 mph - N/A   Overcast
8:21 PM 66.2 °F 60.8 °F 83% 29.97 in 10.0 mi SSE 4.6 mph - N/A   Overcast
8:31 PM 66.2 °F 60.8 °F 83% 29.98 in 10.0 mi Calm Calm - N/A   Overcast
8:54 PM 66.0 °F 61.0 °F 84% 29.98 in 10.0 mi SE 3.5 mph - N/A   Mostly Cloudy
9:24 PM 64.4 °F 60.8 °F 88% 29.97 in 10.0 mi Calm Calm - N/A   Scattered Clouds
9:54 PM 64.9 °F 61.0 °F 87% 29.97 in 10.0 mi ESE 3.5 mph - N/A   Clear
10:54 PM 64.0 °F 61.0 °F 90% 29.98 in 10.0 mi Calm Calm - N/A   Clear
11:54 PM 64.0 °F 60.1 °F 87% 29.96 in 10.0 mi Calm Calm - N/A   Clear